Tracking 19192 objects as of 19-Jun-2018
HD Live streaming from Space Station
objects crossing your sky now

ARIANE 44L+3 R/B

Track ARIANE 44L+3 R/B now!


NORAD ID: 23866
Int'l Code: 1996-030C
Perigee: 283.9 km
Apogee: 30,568.1 km
Inclination: 4.5 °
Period: 533.8 minutes
Semi major axis: 21797 km
RCS: 20.3809 m2 (large)
Launch date: May 16, 1996
Source: France (FR)
Launch site: FRENCH GUIANA (FRGUI)

Note: This is a ROCKET BODY
aabbcc
Your satellite tracking list
Your tracking list is empty




NASA's NSSDC Master Catalog

Two Line Element Set (TLE):
1 23866U 96030C   18169.24953203 +.00001676 +00000-0 +61462-3 0  9998
2 23866 004.5084 346.1276 6946876 307.4841 007.5447 02.69778600200947
Source of the keplerian elements: AFSPC